Theta_e
306 305 304 303 303 303 299 298 298 298 296 295 295 295 294 295 296 296 297 298 299 300 300 300 301 301 301 302 302 301 300 299 297 295 294 293 290 287 287 285 284 283
305 303 302 302 301 300 299 299 298 297 297 295 296 295 296 295 295 296 296 297 298 299 299 299 299 299 299 299 298 298 295 294 293 294 291 290 288 286 284 283 283 282
303 303 301 300 300 299 299 299 299 298 298 297 296 296 296 295 294 295 296 297 297 297 297 298 297 296 296 296 295 293 292 291 291 289 289 288 286 284 283 283 282 281
302 302 302 301 300 299 299 298 297 297 297 296 296 296 295 295 294 295 295 294 296 295 295 295 295 293 292 291 291 290 290 289 288 288 287 286 285 284 282 282 281 280
300 301 301 301 300 300 299 298 297 295 294 294 294 293 293 293 293 293 292 292 292 291 291 291 291 291 291 290 289 288 287 286 285 285 285 284 283 282 281 281 280 280
299 299 299 299 298 298 298 298 296 295 294 292 292 292 292 291 291 291 290 290 290 290 290 289 289 289 289 288 288 287 286 284 283 284 283 282 281 281 281 280 280 279
297 297 297 297 297 296 297 297 296 294 293 293 290 289 289 289 289 289 290 289 289 289 289 289 288 288 287 287 287 285 284 283 282 282 282 281 281 280 279 279 279 279
294 294 295 295 295 293 294 294 293 291 290 289 289 288 289 289 289 289 289 288 288 288 288 287 287 287 286 286 286 284 282 283 282 281 280 279 279 279 278 279 278 278
293 292 292 292 292 291 291 291 291 289 289 289 289 287 288 288 288 288 288 288 287 287 286 286 286 286 285 285 285 284 282 281 281 280 279 279 278 278 278 278 278 278
292 291 291 291 292 291 290 289 289 289 289 289 288 287 287 287 287 287 287 287 286 286 286 285 285 285 284 284 283 282 282 280 279 279 279 279 278 278 278 277 277 277
291 291 291 290 291 290 290 289 288 288 288 289 288 286 286 286 286 286 286 286 286 285 285 285 285 284 284 283 282 281 281 280 279 278 278 278 278 278 279 277 277 277
291 291 291 290 289 289 289 289 287 287 287 288 288 287 286 286 286 285 285 285 285 285 285 284 284 284 283 283 281 280 279 279 279 278 278 278 278 278 277 277 277 277
291 291 291 290 289 289 289 288 287 287 287 287 286 286 286 285 285 285 285 285 284 284 284 284 283 283 283 282 281 279 279 279 278 278 277 278 278 277 277 277 277 277
291 291 290 290 288 287 287 287 287 286 286 286 286 286 285 285 285 285 284 284 284 284 283 283 283 282 282 282 281 280 280 279 278 278 278 278 277 277 277 277 277 278
290 290 289 288 287 286 286 286 286 286 285 285 285 285 285 285 284 284 283 283 283 283 283 283 282 282 282 281 280 279 279 279 279 279 278 277 277 276 277 278 278 278
289 288 288 287 286 285 285 285 285 285 285 285 285 285 285 284 284 284 283 283 282 282 282 282 282 282 283 285 284 281 280 279 279 278 277 276 276 277 277 278 278 278
288 287 287 286 286 285 284 284 284 285 285 285 285 285 284 284 284 283 283 283 282 282 281 282 282 282 285 287 287 286 280 279 278 277 277 277 277 277 277 277 278 279
288 286 286 285 285 285 284 283 283 284 284 284 284 284 284 284 283 283 283 282 282 282 281 281 281 284 287 287 288 286 284 280 279 277 277 277 277 277 277 277 278 278
287 286 285 285 285 284 283 283 283 284 284 284 283 284 284 283 283 282 282 282 282 281 281 281 281 285 288 288 289 287 285 282 278 278 277 277 277 277 277 278 278 278
287 286 285 285 284 284 283 282 283 284 284 284 284 284 283 283 283 283 283 282 282 281 281 281 280 284 288 289 288 287 286 282 278 278 278 278 278 278 278 278 278 278
286 286 286 284 284 283 283 282 282 282 283 284 284 283 283 283 283 282 282 282 282 282 281 280 279 286 289 289 289 287 286 283 278 278 277 277 278 278 279 279 279 279
286 285 285 284 283 283 282 282 282 282 282 284 284 283 283 283 283 283 282 282 282 282 281 280 280 286 288 289 288 287 286 280 278 277 277 278 278 279 280 280 280 280
286 285 285 284 283 282 282 282 282 282 283 283 283 283 282 282 282 282 282 282 281 281 281 280 280 285 288 288 288 288 285 279 279 278 278 278 278 280 280 280 280 280
285 285 284 283 283 282 282 282 282 282 283 283 283 282 282 282 282 281 282 281 281 280 281 280 279 284 287 288 287 287 283 279 279 279 278 278 279 279 279 279 280 280
285 285 284 283 283 282 282 281 281 281 282 283 283 282 282 282 281 281 280 280 280 280 281 280 279 282 287 287 287 287 282 280 279 279 278 278 278 278 278 278 279 281
285 285 284 283 282 281 281 281 281 281 281 282 282 282 281 281 280 280 279 279 279 279 280 280 279 280 285 287 287 287 284 280 279 278 278 278 278 278 277 278 278 279
Wind_Speed
8 6 6 6 6 5 7 7 6 7 6 6 7 7 8 8 8 9 8 6 6 7 6 6 6 6 6 7 9 8 8 6 5 6 7 7 7 9 9 8 7 8
9 6 5 5 5 4 6 7 7 7 7 7 6 6 5 6 7 9 8 8 7 6 5 5 5 5 6 6 6 7 7 8 7 5 8 9 7 9 8 9 9 7
8 7 6 7 7 7 7 6 6 6 6 6 5 5 5 6 7 7 7 7 7 6 6 6 6 5 6 5 6 7 8 9 9 6 8 9 8 9 8 8 7 7
9 9 8 7 6 7 6 6 5 5 5 6 7 6 6 6 7 7 7 7 7 7 5 7 7 6 5 6 7 7 7 7 7 9 9 7 7 9 8 8 8 7
9 8 8 7 6 6 6 6 7 6 7 6 5 6 7 7 7 7 7 6 6 7 7 8 7 8 8 8 8 8 8 8 7 8 9 9 7 9 8 9 10 9
8 7 8 8 7 7 7 7 7 7 6 5 6 6 6 7 7 8 8 8 7 8 8 7 8 7 8 8 8 8 9 8 8 9 10 10 8 7 8 9 10 10
9 8 8 8 8 7 8 8 8 7 7 6 6 5 6 7 7 8 8 8 7 7 8 9 9 9 8 9 9 8 7 9 9 10 11 9 10 8 7 9 10 10
9 7 8 7 8 7 8 7 7 7 6 6 7 6 7 7 7 6 7 7 7 7 7 8 8 9 8 9 10 10 8 7 9 10 11 10 10 10 8 7 10 11
9 8 8 8 9 8 8 8 7 6 6 8 7 6 6 7 8 8 8 8 8 7 7 7 9 9 8 9 10 11 11 9 10 11 12 12 11 11 10 9 10 10
10 9 9 9 10 8 9 8 7 7 7 7 7 6 7 6 7 8 8 8 8 8 8 8 9 9 9 9 11 11 11 11 10 11 11 12 13 12 12 11 12 11
9 10 10 10 10 8 10 9 8 8 8 8 8 7 7 7 6 7 8 9 9 10 10 10 10 11 11 10 9 9 11 11 11 11 11 11 12 12 12 12 11 11
9 10 11 11 10 9 10 10 9 9 9 8 9 9 8 8 9 8 9 10 10 10 10 10 10 11 12 12 11 10 9 10 10 11 11 11 10 10 10 10 11 11
10 11 10 10 10 10 9 9 9 9 10 10 9 10 10 9 9 9 9 10 10 10 10 11 11 11 11 11 10 10 11 11 11 10 10 9 9 10 10 10 11 10
10 9 9 10 9 8 9 9 9 9 9 8 9 10 10 10 10 10 9 9 10 10 10 9 10 10 11 11 11 11 11 11 12 12 12 10 10 9 9 10 11 11
8 7 7 8 9 9 9 9 9 9 9 9 9 9 8 9 8 9 9 8 8 9 9 9 10 10 10 12 12 11 11 12 13 13 13 13 11 10 9 10 10 10
8 7 8 8 9 10 9 9 9 9 10 9 10 9 9 8 8 8 9 10 9 9 9 8 9 8 12 19 17 14 13 11 11 12 13 13 13 12 10 10 10 9
8 8 8 10 9 9 8 9 9 9 9 9 9 10 10 9 9 10 10 9 10 10 11 10 9 9 17 18 14 15 13 13 13 12 12 13 14 14 13 11 9 9
8 8 9 9 9 10 9 8 8 8 9 8 8 9 8 7 10 10 10 10 9 9 10 9 9 11 18 19 16 19 14 13 11 11 11 11 12 12 11 11 11 10
8 9 9 9 9 9 8 8 9 9 9 9 9 8 7 8 8 9 10 9 10 11 10 10 9 14 18 17 15 18 17 13 11 11 12 11 12 13 13 12 11 10
9 9 9 9 8 8 9 9 9 10 9 8 7 7 8 7 7 8 7 7 9 10 10 9 8 12 13 14 16 15 18 14 10 12 12 13 13 12 12 12 12 12
9 9 9 9 9 9 9 9 10 8 9 9 8 9 9 10 10 10 9 8 8 7 7 8 7 12 11 12 13 16 17 13 11 10 9 9 10 11 12 12 12 11
10 10 9 9 9 10 10 10 9 10 10 8 8 7 7 7 6 7 8 8 7 7 7 8 6 14 15 15 18 20 21 10 9 10 10 10 10 10 10 10 11 11
10 10 9 9 10 10 10 10 10 10 9 7 8 8 9 9 9 9 8 9 9 9 9 8 6 13 16 14 15 18 13 8 9 8 9 11 11 11 10 10 9 10
8 9 10 10 10 11 11 9 8 7 9 8 10 9 9 9 8 8 7 8 10 10 10 9 7 11 16 15 17 18 12 10 9 9 10 10 8 7 7 7 8 11
7 8 9 10 10 10 9 9 9 9 8 8 8 8 8 7 7 7 6 5 6 8 8 8 7 9 16 16 18 17 13 8 9 8 10 8 9 8 6 6 7 10
7 8 8 9 9 8 7 8 7 7 8 8 6 6 6 6 6 6 7 5 5 6 7 7 8 7 11 16 17 19 18 10 9 10 11 10 8 9 8 6 7 7
Wind_Direction
207 198 189 187 192 176 172 177 180 183 188 187 195 196 195 192 172 185 192 194 193 190 177 170 168 161 161 166 177 175 171 158 136 136 131 133 130 127 124 120 113 120
200 190 182 178 184 176 170 181 181 185 190 192 199 192 184 168 176 180 187 191 188 186 168 160 163 157 159 160 159 152 136 132 130 131 129 122 120 112 117 120 120 120
194 194 187 187 187 187 179 180 184 188 190 195 185 179 174 168 165 173 177 180 176 172 165 160 151 154 151 145 141 139 139 136 134 132 125 126 122 117 123 118 114 115
199 195 194 192 187 185 175 175 182 178 181 184 193 184 169 169 162 165 170 174 173 170 160 155 154 147 141 136 131 128 132 131 137 132 119 112 118 122 124 117 113 107
194 191 189 190 186 180 174 181 179 177 180 179 162 157 159 162 163 166 169 168 160 159 157 154 149 146 141 137 138 134 135 133 139 131 126 123 129 125 131 125 124 117
190 186 183 183 183 179 181 187 183 180 175 165 167 159 161 157 160 165 165 161 162 160 155 145 141 142 142 139 138 141 141 138 145 132 129 131 131 126 131 130 126 123
185 181 184 180 181 182 183 186 183 181 180 172 141 155 148 154 159 162 157 156 156 162 161 156 150 148 146 141 137 140 142 140 141 138 132 134 130 126 127 129 127 125
181 179 178 178 182 178 182 182 177 175 170 151 170 165 160 161 163 159 156 159 162 167 169 157 150 146 147 144 145 144 145 146 145 141 137 138 135 134 135 132 130 126
175 180 176 180 181 179 181 178 173 168 164 166 168 165 169 170 169 165 166 165 167 167 163 159 154 151 152 150 153 153 152 157 154 149 146 146 143 143 141 136 129 129
177 176 179 183 186 182 181 176 170 168 167 170 167 161 169 173 168 166 162 165 165 166 166 162 157 156 155 158 159 158 157 157 156 153 151 150 147 146 146 143 139 130
181 176 183 187 188 180 180 172 171 167 169 171 166 170 173 167 171 166 166 167 170 172 171 170 169 162 158 159 161 162 160 158 156 151 151 151 152 151 149 143 139 133
187 183 188 188 184 181 179 174 171 171 171 175 174 174 175 179 175 177 177 178 177 178 175 172 168 167 164 165 163 159 158 156 152 150 150 150 149 145 140 138 136 139
192 193 186 185 184 181 176 175 175 173 172 176 173 174 177 180 182 180 184 179 180 177 176 172 171 169 163 160 158 158 158 154 150 145 142 140 140 136 135 134 134 135
197 191 186 183 179 175 177 178 175 175 176 172 170 177 180 181 181 184 183 181 180 178 176 171 169 167 164 160 161 162 161 157 151 145 142 139 135 135 135 135 138 142
192 190 184 176 173 174 175 178 176 172 172 173 177 179 179 180 178 176 174 182 180 174 173 174 172 173 169 164 161 165 162 156 153 151 147 141 137 133 134 136 139 138
188 185 182 174 177 178 178 175 173 173 173 175 178 179 178 177 174 175 180 182 177 178 177 175 179 176 177 172 168 164 164 158 153 151 148 145 142 139 137 140 141 139
186 185 176 183 182 177 176 173 174 171 174 177 180 180 180 181 177 180 185 185 183 181 181 183 183 183 178 174 168 164 157 158 156 157 152 148 148 148 149 147 141 142
188 177 181 183 175 181 174 173 168 170 176 177 176 179 181 175 184 187 184 182 182 183 184 184 186 187 182 176 168 168 165 159 154 149 153 155 154 151 149 149 150 147
182 181 182 181 182 173 170 167 171 174 176 176 180 176 167 178 184 179 184 180 180 182 186 187 190 187 187 179 167 165 158 151 158 154 154 158 158 158 156 152 149 149
183 182 183 182 172 169 166 170 175 181 176 175 172 173 178 179 181 188 187 189 188 186 190 190 186 187 181 169 170 162 161 151 154 161 162 163 162 159 155 156 156 155
183 183 181 175 171 168 170 175 177 173 171 174 174 177 177 180 183 187 192 191 193 189 184 182 184 181 167 163 163 164 156 155 164 158 155 155 157 158 159 158 160 160
181 181 177 170 170 171 174 176 174 175 174 172 170 174 177 174 182 183 187 190 188 181 178 185 182 177 176 168 167 170 167 156 155 156 157 160 157 158 158 162 163 164
180 174 173 172 171 172 178 177 174 175 175 166 168 173 176 181 184 185 185 184 184 183 182 185 180 183 178 169 173 171 159 160 160 159 160 160 164 165 164 160 164 166
177 171 171 173 174 180 180 178 173 169 172 170 172 174 181 185 183 180 184 185 185 186 185 182 181 185 178 172 172 171 159 163 166 162 166 164 155 155 149 156 163 168
170 169 172 175 180 181 173 168 171 169 166 169 175 173 177 170 171 173 170 174 183 184 177 172 168 184 182 176 174 169 159 168 168 166 161 165 159 155 150 150 166 179
169 172 173 172 174 165 163 165 156 151 160 164 163 161 157 157 160 164 167 172 164 167 179 172 166 180 186 181 178 175 170 166 171 166 174 166 164 162 157 166 177 180